This is the latest recevied weather packets stored in our database for station/object KF4ERV-4. If no packets are shown the sender has not sent any weather packets the latest 1 day(s).
| Time | Temp. | Humidity | Pressure | Rain* | Wind** | Luminosity | Snow |
|---|---|---|---|---|---|---|---|
| 1778048997 | 10.56° C | 81% | 1008 hPa | 2.54 mm | - | - | - |
| 1778048959 | 10.56° C | 81% | 1008 hPa | 2.54 mm | - | - | - |
| 1778048959 | 10.56° C | 81% | 1008 hPa | 2.79 mm | - | - | - |
| 1778048700 | 10.56° C | 81% | 1008 hPa | 2.54 mm | - | - | - |
| 1778048473 | 10.56° C | 81% | 1008 hPa | 2.79 mm | - | - | - |
| 1778048392 | 10.56° C | 81% | 1008 hPa | 2.79 mm | - | - | - |
| 1778048183 | 10.56° C | 81% | 1008 hPa | 3.3 mm | - | - | - |
| 1778048135 | 10.56° C | 81% | 1008 hPa | 3.3 mm | - | - | - |
| 1778048095 | 10.56° C | 81% | 1008 hPa | 3.3 mm | - | - | - |
| 1778048025 | 10.56° C | 81% | 1008 hPa | 4.32 mm | - | - | - |
| 1778047892 | 10.56° C | 81% | 1008 hPa | 4.32 mm | - | - | - |
| 1778047798 | 10.56° C | 81% | 1008 hPa | 4.32 mm | - | - | - |
| 1778047194 | 10.56° C | 81% | 1008 hPa | 4.57 mm | - | - | - |
| 1778047022 | 11.11° C | 81% | 1007.9 hPa | 4.83 mm | - | - | - |
| 1778046896 | 11.11° C | 81% | 1007.9 hPa | 4.83 mm | - | - | - |
| 1778046732 | 11.11° C | 82% | 1008 hPa | 4.83 mm | - | - | - |
| 1778046599 | 11.11° C | 82% | 1008 hPa | 4.83 mm | - | - | - |
| 1778046442 | 11.11° C | 81% | 1007.9 hPa | 4.83 mm | - | - | - |
| 1778046152 | 11.11° C | 82% | 1007.8 hPa | 5.59 mm | - | - | - |
| 1778046079 | 11.67° C | 83% | 1008 hPa | 6.86 mm | - | - | - |
| 1778045862 | 11.11° C | 82% | 1007.9 hPa | 5.84 mm | - | - | - |
| 1778044992 | 12.78° C | 85% | 1007.9 hPa | 7.62 mm | - | - | - |
| 1778044845 | 12.78° C | 85% | 1007.9 hPa | 7.62 mm | - | - | - |
| 1778044702 | 13.33° C | 88% | 1007.3 hPa | 7.37 mm | - | - | - |
| 1778044121 | 15° C | 90% | 1007 hPa | 5.84 mm | - | - | - |
* Rain latest hour (hover to see other rain measurements)
** Current wind speed in m/s (hover to see current wind gust speed)